Regional Weather Roundup
Issued by NWS Newport/Morehead, NC

Current Version | Previous Version | Text Only | Print | Product List | Glossary On
Versions: 1 2 3 4 5 6 7 8 9 10 11 12 13 14 15 16 17 18 19 20 21 22 23 24 25 26 27 28 29 30 31 32 33 34 35 36 37 38 39 40 41 42 43 44 45 46 47 48 49 50
000
ASUS42 KMHX 251713
RWRMHX
WEATHER ROUNDUP FOR EASTERN NORTH CAROLINA
NATIONAL WEATHER SERVICE NEWPORT/MOREHEAD CITY NC
1200 PM EST SAT FEB 25 2017

NOTE: "FAIR" INDICATES FEW OR NO CLOUDS BELOW 12,000 FEET
WITH NO SIGNIFICANT WEATHER AND/OR OBSTRUCTIONS TO VISIBILITY

NCZ015>017-031-032-045>047-102-103-251800-
NORTH COAST

CITY           SKY/WX    TMP DP  RH WIND       PRES   REMARKS
EDENTON        SUNNY     76  60  57 S9        29.71F
ELIZABETH CITY SUNNY     74  60  61 S8        29.70F
KITTY HAWK     NOT AVBL
MANTEO         SUNNY     71  60  69 S10       29.73F

$$

NCZ045>047-081-094-103-104-251800-
CENTRAL COAST

CITY           SKY/WX    TMP DP  RH WIND       PRES   REMARKS
FRISCO         SUNNY     72  61  68 SW7       29.76F HAZE

$$

NCZ095-097-098-100-101-251800-
SOUTHERN COAST

CITY           SKY/WX    TMP DP  RH WIND       PRES   REMARKS
BEAUFORT       SUNNY     71  63  75 SW15      29.76F
CEDAR ISLAND   NOT AVBL
JACKSONVILLE   NOT AVBL
PINEY ISLAND   SUNNY    N/A N/A N/A SW10G20   29.74F
WILMINGTON     SUNNY     76  58  53 S16G22    29.75F


$$

NCZ011>013-027>030-043-044-078>080-089-090>093-098-251800-
COASTAL PLAIN

CITY           SKY/WX    TMP DP  RH WIND       PRES   REMARKS
AHOSKIE          N/A     74  58  57 SW5G17    29.68F
CLINTON        SUNNY     76  58  53 S8        29.72F
ELIZABETHTOWN  SUNNY     77  58  52 S13       29.73F
GOLDSBORO      SUNNY     76  57  50 SW13G20   29.69F
GREENVILLE     SUNNY     77  59  53 SW10G20   29.74F
HAVELOCK       SUNNY     77  60  55 SW14G20   29.75F
KENANSVILLE    SUNNY     75  57  53 SW6       29.73F
KINSTON        SUNNY     77  57  50 SW14G20   29.72F
NEW BERN       SUNNY     77  57  50 SW14G22   29.74F
RICHLANDS      MOSUNNY   77  58  51 SW15G24   29.74F
ROCKY MOUNT    SUNNY     76  57  51 S13G21    29.68F
WASHINGTON     SUNNY     76  58  53 SW12      29.71F
WHITEVILLE     SUNNY     77  60  54 S13G18    29.73F

$$

AMZ130-135-150-152-154-156-158-170-250-252-270-ANZ085-086-088-633-658-670-251800-
MARINE OBSERVATIONS

STATION/POSITION TIME  TEMP    WIND        PRES    WAVE   SWELL
                       AIR SEA DIR/SP/G            HT/PER HT/PER
                 (UTC) (F)     (DEG/KT/KT) (MB)    (FT/S) (FT/S)
CHESAPEAKE LIGHT NOT AVBL
64 E VA BEACH    1650   58 55  170/  4/  6 1006.4    7/11   7/11
DUCK             1648   68 49  190/  8/ 10 1006.0
2 E DUCK         1630      52                N/A     5/11   2/11
OREGON INLET     1648          170/  8/ 10   N/A
13E OREGON INLT  NOT AVBL
HATTERAS CG      1648   70 63  200/  4/  6 1007.4
DIAMOND BUOY     1650   70 76  250/ 10/ 12 1007.6    7/11   7/11
CAPE LOOKOUT     1600   70     220/  8/  9 1008.4
BEAUFORT LAB     1648   68 62  200/  8/ 12 1006.9
30 SE NEW RVR IN 1608   66     240/  8/ 12 1009.1
30 SE NEW RVR IN 1643      69                N/A     6/11   3/11
27 SE WRIGHTSVLE 1608   66 65  210/  8/ 12 1008.5
5 SE WRIGHTSVLE  1608   61 59  190/ 12/ 16 1008.6
225 S CAPE HAT   1650   70 71  330/  6/  8 1010.3    8/10   8/10
41 SE CHARLESTON 1550   70 70  240/ 17/ 21 1009.6    6/10   5/10

$$



USA.gov is the U.S. government's official web portal to all federal, state and local government web resources and services.